Regional Weather Roundup
Issued by NWS

Home | Current Version | Previous Version | Text Only | Print | Product List | Glossary Off
Versions: 1 2 3 4 5 6 7 8 9 10 11 12 13 14 15 16 17 18 19 20 21 22 23 24 25 26 27

000
ASUS45 KBOU 262007
RWRCO

WEATHER ROUNDUP FOR COLORADO
NATIONAL WEATHER SERVICE DENVER/BOULDER CO
200 PM MDT FRI AUG 26 2016

NOTE: "FAIR" INDICATES FEW OR NO CLOUDS BELOW 12000 FEET WITH NO
SIGNIFICANT WEATHER AND/OR OBSTRUCTIONS TO VISIBILITY.

COZ001>005-013-030-031-262100-
...NORTHWEST COLORADO...

CITY           SKY/WX    TMP DP  RH WIND       PRES   REMARKS
CRAIG          PTSUNNY   76  35  22 SW20      30.14F
HAYDEN         FAIR      72  34  25 SW9       30.17F
MEEKER         CLOUDY    72  39  30 SW13      30.16F
MOUNT WERNER   NOT AVBL
STEAMBOAT SPGS FAIR      71  33  24 W10       30.18F
WALDEN         PTSUNNY   63  23  22 W15G21    30.26F
$$

COZ006>008-011-262100-
...WEST CENTRAL VALLEYS...

CITY           SKY/WX    TMP DP  RH WIND       PRES   REMARKS
GRAND JUNCTION FAIR      74  47  38 W6        30.14F
MONTROSE       FAIR      73  47  39 VRB6      30.19F
EAGLE          PTSUNNY   73  36  25 S20G26    30.19F
RIFLE          FAIR      73  45  36 W14       30.15F
DELTA          FAIR      78  41  26 S3        30.15F
NUCLA          FAIR     N/A N/A N/A CALM      30.25F
$$

COZ017>023-064>068-262100-
...SOUTHWEST COLORADO...

CITY           SKY/WX    TMP DP  RH WIND       PRES   REMARKS
DURANGO        FAIR      69  42  37 W9        30.26F THUNDER
CORTEZ         FAIR      71  51  49 SW9       30.23F
PAGOSA SPRINGS CLOUDY    65  40  39 SW5       30.31F
TELLURIDE      PTSUNNY   56  44  63 SW5       30.40R
WOLF CREEK PAS CLOUDY    41  41 100 SW13G20   30.56S
$$

COZ009-010-012-014-032>034-037-058>063-262100-
...CENTRAL COLORADO...

CITY           SKY/WX    TMP DP  RH WIND       PRES   REMARKS
ASPEN          FAIR      66  35  31 N8        30.25F
BUENA VISTA    PTSUNNY   60  40  46 W23G31    30.29F
COPPER MTN     FAIR      52  30  43 W12G21    30.51R
BERTHOUD PASS  CLOUDY    39  27  60 MISG      30.51S
COTTONWOOD PAS LGT RAIN  54  32  43 NW10G24   30.40S
GUNNISON       FAIR      64  41  42 SW5       30.31F
KREMMLING      CLOUDY    54  39  58 CALM      30.25R
LEADVILLE      FAIR      56  26  31 W13       30.37F
MONARCH PASS   PTSUNNY   45  34  65 W17G29    30.62S
SALIDA         FAIR      70  37  30 SW5       30.31F
SUNLIGHT       PTSUNNY   52  43  71 NE5       30.48S
WILKERSON PASS PTSUNNY   50  32  50 W6        30.48F
$$

COZ069>075-262100-
...SAN LUIS VALLEY/SANGRE DE CRISTO MOUNTAINS...

CITY           SKY/WX    TMP DP  RH WIND       PRES   REMARKS
ALAMOSA        FAIR      66  41  40 CALM      30.28F
LA VETA PASS   FAIR      59  37  44 SW7       30.41F
SAGUACHE       FAIR      64  34  32 NW9       30.29S
$$

COZ035-036-038>040-262100-
...NORTHERN COLORADO FRONT RANGE...

CITY           SKY/WX    TMP DP  RH WIND       PRES   REMARKS
DENVER INTL AP FAIR      75  42  30 E8        30.10F
DMNS CITY PARK   N/A     71  42  35 E2G9      30.10F
AURORA         MOSUNNY   73  42  32 NE5       30.12F
FRONT RANGE AP MOSUNNY   75  41  29 E7        30.12F
ERIE MUNI ARPT FAIR      77  42  28 SE6       30.08F
BOULDER MUN AP FAIR      77  45  31 E8        30.08F
CENTENNIAL     PTSUNNY   74  39  28 VRB5      30.13F
BROOMFIELD     NOT AVBL
FORT COLLINS   FAIR      75  46  35 SE10      30.05F
LONGMONT       FAIR      77  45  32 CALM      30.10F
$$

COZ041-046-047-076>085-087-088-262100-
...PIKES PEAK/PALMER DIVIDE AND SOUTHERN FOOTHILLS...

CITY           SKY/WX    TMP DP  RH WIND       PRES   REMARKS
COLO. SPRINGS  FAIR      71  46  40 SW9       30.18F
A. F. ACADEMY  FAIR      68  45  44 VRB3      30.17F
SCHRIEVER AFB  NOT AVBL
ELLICOTT       NOT AVBL
FALCON         FAIR      69  46  43 S7        30.22S
FORT CARSON    FAIR      71  48  43 SE2       30.14F
LIMON          FAIR      66  50  56 S7        30.13F
MONUMENT HILL  FAIR      66  37  34 CALM      30.22F
TRINIDAD       PTSUNNY   76  46  34 S12G20    30.15F
$$

COZ042>045-048>051-090-091-262100-
...NORTHEAST COLORADO...

CITY           SKY/WX    TMP DP  RH WIND       PRES   REMARKS
GREELEY ARPT   FAIR      73  52  46 E7        30.08F
AKRON          CLOUDY    62  47  57 NE7       30.11F
BURLINGTON     PTSUNNY   76  53  44 S12       30.09F
WRAY           NOT AVBL
STERLING       FAIR      72  59  64 S9        30.08F
HOLYOKE        FAIR      73  59  60 E6        30.10F
FORT MORGAN    FAIR      76  49  38 S7        30.09F
$$

COZ086-089-092>099-262100-
...SOUTHEAST COLORADO...

CITY           SKY/WX    TMP DP  RH WIND       PRES   REMARKS
PUEBLO         FAIR      74  52  46 SE8       30.09F
LA JUNTA       FAIR      76  51  41 SW9       30.08F
LAMAR          FAIR      80  52  37 S5        30.04F
SPRINGFIELD      N/A     76  55  48 SE6       30.09F
$$




USA.gov is the U.S. government's official web portal to all federal, state and local government web resources and services.